EW9994 Weather Reports


time (UTC)temp
C
wind
direction
speed
KPH
gust
KPH
rain 1hr
cm
rain 24hr
cm
rain mn
cm
humidity
%
barometer
mb
20260904011905 21 26 6.4 9.7 0.00 0.00 0.00 78 1019.1
20260904011406 21 26 4.8 9.7 0.00 0.00 0.00 78 1019.0
20260904010405 21 26 8.0 9.7 0.00 0.00 0.00 77 1019.0
20260904004405 21 26 6.4 9.7 0.00 0.00 0.00 77 1019.0
20260904003905 21 26 8.0 12.9 0.00 0.00 0.00 77 1018.9
20260904003405 21 26 8.0 9.7 0.00 0.00 0.00 77 1018.9
20260904001905 22 26 8.0 9.7 0.00 0.00 0.00 75 1018.9
20260904001406 22 26 6.4 12.9 0.00 0.00 0.00 75 1018.9
20260904000406 22 26 4.8 12.9 0.00 0.00 0.00 75 1018.8
20260903234905 22 26 4.8 8.0 0.00 0.00 0.00 74 1018.8
20260903234405 22 25 8.0 9.7 0.00 0.00 0.00 74 1018.8
20260903231406 22 25 8.0 11.3 0.00 0.00 0.00 73 1018.8
20260903224910 23 25 4.8 9.7 0.00 0.00 0.00 71 1018.8
20260903224405 23 25 4.8 11.3 0.00 0.00 0.00 71 1018.7
20260903221905 23 25 4.8 11.3 0.00 0.00 0.00 70 1018.7
20260903221406 23 25 8.0 9.7 0.00 0.00 0.00 69 1018.6
20260903220905 23 25 6.4 11.3 0.00 0.00 0.00 69 1018.6
20260903213905 23 25 6.4 12.9 0.00 0.00 0.00 69 1018.3
20260903213406 23 25 8.0 12.9 0.00 0.00 0.00 68 1018.3
20260903210905 23 23 6.4 11.3 0.00 0.00 0.00 67 1018.3
20260903203409 24 23 8.0 16.1 0.00 0.00 0.00 67 1018.3
20260903201906 24 23 1.6 4.8 0.00 0.00 0.00 67 1018.2
20260903201406 25 23 4.8 4.8 0.00 0.00 0.00 67 1018.2
20260903200407 25 23 1.6 8.0 0.00 0.00 0.00 66 1018.1
20260903194407 25 23 1.6 4.8 0.00 0.00 0.00 67 1018.0
20260903193407 25 23 1.6 4.8 0.00 0.00 0.00 68 1018.1
20260903191907 25 23 3.2 4.8 0.00 0.00 0.00 67 1017.9
20260903184907 26 25 8.0 12.9 0.00 0.00 0.00 66 1017.7
20260903183406 26 23 9.7 14.5 0.00 0.00 0.00 67 1017.5
20260903181907 26 23 8.0 16.1 0.00 0.00 0.00 67 1017.4
20260903180906 27 26 11.3 19.3 0.00 0.00 0.00 67 1017.3
20260903174906 27 26 11.3 16.1 0.00 0.00 0.00 68 1017.1
20260903173906 27 25 8.0 12.9 0.00 0.00 0.00 68 1016.9
20260903173407 27 26 4.8 16.1 0.00 0.00 0.00 67 1016.9
20260903171407 28 29 9.7 14.5 0.00 0.00 0.00 64 1016.9
20260903170407 30 30 8.0 12.9 0.00 0.00 0.00 60 1016.9
20260903164406 31 249 1.6 4.8 0.00 0.00 0.00 52 1016.9
20260903163906 31 248 4.8 11.3 0.00 0.00 0.00 53 1016.8
20260903163406 31 245 6.4 12.9 0.00 0.00 0.00 52 1016.7
20260903161406 31 244 8.0 14.5 0.00 0.00 0.00 51 1016.8
20260903154907 32 255 8.0 12.9 0.00 0.00 0.00 47 1016.8
20260903154406 32 243 3.2 14.5 0.00 0.00 0.00 46 1016.9
20260903153407 32 246 4.8 19.3 0.00 0.00 0.00 46 1016.8
20260903150906 32 222 8.0 14.5 0.00 0.00 0.00 49 1016.9
20260903144907 32 248 8.0 12.9 0.00 0.00 0.00 49 1017.0
20260903144406 32 242 4.8 14.5 0.00 0.00 0.00 50 1016.9
20260903143406 32 230 8.0 14.5 0.00 0.00 0.00 49 1017.0
20260903141906 32 256 8.0 12.9 0.00 0.00 0.00 49 1017.0
20260903140906 32 246 8.0 14.5 0.00 0.00 0.00 48 1017.1
20260903140409 32 207 3.2 11.3 0.00 0.00 0.00 48 1017.0
20260903134406 32 239 3.2 9.7 0.00 0.00 0.00 49 1017.1
20260903133906 32 252 6.4 11.3 0.00 0.00 0.00 48 1017.1
20260903131906 32 252 4.8 9.7 0.00 0.00 0.00 50 1017.2
20260903131406 32 252 4.8 11.3 0.00 0.00 0.00 50 1017.3
20260903130907 32 239 4.8 11.3 0.00 0.00 0.00 50 1017.3
20260903124906 32 198 4.8 9.7 0.00 0.00 0.00 51 1017.5
20260903120406 31 194 1.6 11.3 0.00 0.00 0.00 54 1017.7
20260903114408 31 205 8.0 11.3 0.00 0.00 0.00 59 1017.8
20260903111906 30 235 4.8 12.9 0.00 0.00 0.00 61 1018.0
20260903110908 30 231 8.0 12.9 0.00 0.00 0.00 61 1018.0
20260903110406 30 173 8.0 12.9 0.00 0.00 0.00 62 1018.1
20260903103906 30 230 4.8 9.7 0.00 0.00 0.00 57 1018.7
20260903103406 29 249 3.2 9.7 0.00 0.00 0.00 61 1018.7
20260903101906 28 223 3.2 8.0 0.00 0.00 0.00 62 1019.0
20260903100906 28 212 4.8 9.7 0.00 0.00 0.00 64 1019.2
20260903100406 28 215 4.8 9.7 0.00 0.00 0.00 63 1019.2
20260903094406 27 217 4.8 8.0 0.00 0.00 0.00 67 1019.2
20260903093906 27 218 3.2 4.8 0.00 0.00 0.00 69 1019.3
20260903093406 27 218 3.2 4.8 0.00 0.00 0.00 70 1019.3
20260903091906 26 216 4.8 8.0 0.00 0.00 0.00 71 1019.4
20260903090406 26 242 3.2 9.7 0.00 0.00 0.00 74 1019.3
20260903084906 25 207 6.4 9.7 0.00 0.00 0.00 76 1019.2
20260903081906 24 243 3.2 4.8 0.00 0.00 0.00 78 1019.2
20260903080406 23 243 3.2 4.8 0.00 0.00 0.00 80 1019.2
20260903074406 23 243 0.0 3.2 0.00 0.00 0.00 81 1019.2
20260903073405 23 337 3.2 8.0 0.00 0.00 0.00 82 1019.1
20260903070907 22 26 0.0 1.6 0.00 0.00 0.00 82 1019.2
20260903070406 22 26 0.0 0.0 0.00 0.00 0.00 82 1019.1
20260903064407 21 25 0.0 0.0 0.00 0.00 0.00 82 1019.1
20260903063405 20 26 0.0 4.8 0.00 0.00 0.00 79 1019.0
20260903061906 19 26 4.8 4.8 0.00 0.00 0.00 77 1019.0
20260903060405 19 26 1.6 4.8 0.00 0.00 0.00 76 1019.0
20260903054906 18 26 1.6 4.8 0.00 0.00 0.00 77 1019.0
20260903053906 18 26 3.2 4.8 0.00 0.00 0.00 78 1018.9
20260903053406 18 26 3.2 4.8 0.00 0.00 0.00 77 1018.8
20260903051906 18 26 3.2 4.8 0.00 0.00 0.00 79 1018.7
20260903050905 18 26 6.4 11.3 0.00 0.00 0.00 78 1018.7
20260903050405 18 26 8.0 12.9 0.00 0.00 0.00 79 1018.7
20260903044906 18 26 9.7 11.3 0.00 0.00 0.00 78 1018.6
20260903044405 18 26 6.4 11.3 0.00 0.00 0.00 78 1018.5
20260903043905 18 26 8.0 11.3 0.00 0.00 0.00 78 1018.4
20260903041905 18 26 0.0 0.0 0.00 0.00 0.00 80 1018.3
20260903041405 18 26 0.0 3.2 0.00 0.00 0.00 81 1018.3
20260903034905 18 26 0.0 0.0 0.00 0.00 0.00 82 1018.2
20260903034406 18 26 1.6 8.0 0.00 0.00 0.00 82 1018.2
20260903033906 18 26 8.0 11.3 0.00 0.00 0.00 82 1018.3
20260903033406 18 27 6.4 14.5 0.00 0.00 0.00 82 1018.3
20260903031906 18 27 8.0 11.3 0.00 0.00 0.00 82 1018.3
20260903023905 18 29 8.0 11.3 0.00 0.00 0.00 82 1018.5
20260903021906 19 29 3.2 4.8 0.00 0.00 0.00 82 1018.6
20260903021405 19 29 1.6 4.8 0.00 0.00 0.00 82 1018.6
20260903020906 19 29 1.6 4.8 0.00 0.00 0.00 82 1018.7
20260903014405 19 28 4.8 9.7 0.00 0.00 0.00 82 1018.7
20260903013906 19 29 4.8 9.7 0.00 0.00 0.00 82 1018.7